Regional Weather Roundup
Issued by NWS Sterling, VA

Home | Current Version | Previous Version | Graphics & Text | Print | Product List | Glossary On
Versions: 1 2 3 4 5 6 7 8 9 10 11 12 13 14 15 16 17 18 19 20 21 22 23 24 25 26 27 28 29 30 31 32 33 34 35 36 37 38 39 40 41 42 43 44 45 46 47 48 49 50
000
ASUS41 KLWX 310210
RWRLWX

REGIONAL WEATHER ROUNDUP
NATIONAL WEATHER SERVICE BALTIMORE MD/WASHINGTON DC
1000 PM EDT SUN AUG 30 2015

Note: "FAIR" indicates few or no clouds below 12,000 feet
with no significant weather and/or obstructions to visibility.
 TC=TEMPERATURE CELSIUS

 * =Non NWS site. Station does not report precipitation (e.g. rain,
    snow, etc.), thunder, or fog.

DCZ001-MDZ009-015-VAZ040>042-051-053>054-310300-
WASHINGTON METRO

CITY           SKY/WX    TMP DP  RH WIND       PRES   REMARKS
WASHINGTON NAT CLOUDY    80  67  64 S10       30.09R
DULLES         CLOUDY    78  66  66 S5        30.09R
ANDREWS AFB    CLOUDY    79  65  62 S10       30.09R
FT BELVOIR     CLOUDY    78  67  69 VRB3      30.09R
QUANTICO       CLOUDY    79  68  69 SW5       30.10R
COLLEGE PARK*  CLOUDY    81  64  57 S3        30.08R
LEESBURG*      CLOUDY    79  72  78 SW12      30.10R
MANASSAS*      CLEAR     75  70  83 CALM      30.09R
GAITHERSBURG*  CLOUDY    79  64  61 CALM      30.13S

$$

MDZ006>007-011-014-310300-
BALTIMORE METRO

CITY           SKY/WX    TMP DP  RH WIND       PRES   REMARKS
BWI AIRPORT    CLOUDY    79  66  64 S5        30.08R
MD SCIENCE CTR   N/A     81  66  60 MISG      30.08R
MARTIN STATE   CLOUDY    79  73  83 S6        30.09R
ANNAPOLIS      CLOUDY    79  65  62 S6        30.08R
FORT MEADE*    CLOUDY    72  68  88 CALM      30.11R

$$

MDZ012-015-019>023-310300-
MARYLAND EASTERN SHORE

CITY           SKY/WX    TMP DP  RH WIND       PRES   REMARKS
OCEAN CITY     CLOUDY    77  67  71 SW9       30.11S
SALISBURY      CLOUDY    74  67  78 S7        30.10S
BAY BRIDGE AP*   N/A     79  66  65 S9        30.09R
CAMBRIDGE*     CLOUDY    79  66  65 S5        30.10R

$$

MDZ017>025-310300-
SOUTHERN MARYLAND

CITY           SKY/WX    TMP DP  RH WIND       PRES   REMARKS
PATUXENT RIVER CLOUDY    77  63  61 SW8       30.10R
ST INIGOES     CLOUDY    78  66  66 S6        30.10R
LEONARDTOWN*   CLOUDY    77  63  61 S3        30.12S

$$

MDZ003>005-310300-
NORTH CENTRAL MARYLAND

CITY           SKY/WX    TMP DP  RH WIND       PRES   REMARKS
FREDERICK*     CLOUDY    75  70  83 S3        30.11R
HAGERSTOWN APT CLOUDY    76  66  71 E6        30.10R
WESTMINSTER*   CLOUDY    79  72  78 CALM      30.11R

$$

MDZ501>502-310300-
WESTERN MARYLAND

CITY           SKY/WX    TMP DP  RH WIND       PRES   REMARKS
OAKLAND*       CLOUDY    66  61  82 SW3       30.22R
CUMBERLAND*    CLOUDY    77  64  65 CALM      30.14R

$$

VAZ025>031-310300-
SHENANDOAH VALLEY

CITY           SKY/WX    TMP DP  RH WIND       PRES   REMARKS
WINCHESTER*    CLOUDY    77  63  61 S3        30.10R
FRONT ROYAL*   MOCLDY    77  63  61 CALM      30.10R
LURAY*         FAIR      75  63  64 S6        30.12R
NEW MARKET*    FAIR      71  65  83 CALM      30.12R
STAUNTON*      CLOUDY    75  66  72 CALM      30.16S
WAYNESBORO*    MOCLDY    75  64  69 CALM      30.16R

$$

WVZ021-048>050-054>055-310300-
EASTERN WEST VIRGINIA PANHANDLE

CITY           SKY/WX    TMP DP  RH WIND       PRES   REMARKS
MARTINSBURG    CLOUDY    76  64  66 S6        30.09R
PETERSBURG*    LGT RAIN  69  67  94 CALM      30.15S

$$

VAZ036>039-050-310300-
CENTRAL FOOTHILLS

CITY           SKY/WX    TMP DP  RH WIND       PRES   REMARKS
CHARLOTTESVILL CLOUDY    76  68  76 CALM      30.11R
CULPEPER*      CLOUDY    73  67  81 CALM      30.10S
ORANGE*        CLOUDY    77  68  73 CALM      30.12R
GORDONSVILLE*  FAIR      73  70  88 CALM      30.11R
WARRENTON*     FAIR      77  68  73 CALM      30.10R

$$

VAZ055>057-310300-
NORTH AND CENTRAL PIEDMONT

CITY           SKY/WX    TMP DP  RH WIND       PRES   REMARKS
FREDERICKSBRG* CLOUDY    80  66  61 S5        30.09S
STAFFORD*      CLOUDY    77  63  61 CALM      30.13S

$$

NCZ024-NYZ072-PAZ021-071-VAZ022-071-310300-
OTHER REGIONAL OBSERVATIONS

CITY           SKY/WX    TMP DP  RH WIND       PRES   REMARKS
NEW YORK CITY  LGT RAIN  75  71  87 S6        30.07R FOG
PHILADELPHIA   CLOUDY    81  65  58 SW12      30.07S
PITTSBURGH     MOCLDY    75  64  68 SW3       30.10R
ROANOKE        CLOUDY    75  66  73 CALM      30.17R
RICHMOND       CLOUDY    77  67  71 CALM      30.11R
RALEIGH        CLOUDY    75  64  68 SW6       30.15R

$$

ANZ530>537-310300-
MARINE OBSERVATIONS

STATION/POSITION TIME  TEMP    WIND        PRES
                       AIR SEA DIR/SP/G
                 (UTC) (F)     (DEG/KT/KT) (MB)
THOMAS PT LIGHT  0200   79 79  200/ 15/ 17 1019.2R

$$




USA.gov is the U.S. government's official web portal to all federal, state and local government web resources and services.